This is the latest recevied weather packets stored in our database for station/object R8AHC-13. If no packets are shown the sender has not sent any weather packets the latest 10 day(s).
| Time | Temp. | Humidity | Pressure | Rain* | Wind** | Luminosity | Snow |
|---|---|---|---|---|---|---|---|
| 1777923422 | 12.78° C | 71% | 1009 hPa | - | 3.13 m/s, 280° | - | - |
| 1777919822 | 12.78° C | 71% | 1010 hPa | - | 3.13 m/s, 280° | - | - |
| 1777916222 | 12.78° C | 71% | 1011 hPa | - | 3.13 m/s, 270° | - | - |
| 1777912622 | 12.78° C | 71% | 1011 hPa | - | 4.02 m/s, 260° | - | - |
| 1777909023 | 12.78° C | 71% | 1010 hPa | - | 1.79 m/s, 270° | - | - |
| 1777905422 | 15° C | 77% | 1010 hPa | - | 3.13 m/s, 280° | - | - |
| 1777901821 | 15° C | 77% | 1010 hPa | - | 4.02 m/s, 300° | - | - |
| 1777898222 | 15° C | 77% | 1009 hPa | - | 4.02 m/s, 310° | - | - |
| 1777894621 | 15° C | 77% | 1009 hPa | - | 4.92 m/s, 330° | - | - |
| 1777891022 | 15° C | 77% | 1009 hPa | - | 4.92 m/s, 300° | - | - |
| 1777887422 | 15° C | 77% | 1009 hPa | - | 4.92 m/s, 270° | - | - |
| 1777883822 | 15° C | 77% | 1009 hPa | - | 4.92 m/s, 280° | - | - |
| 1777880221 | 10° C | 66% | 1009 hPa | - | 3.13 m/s, 270° | - | - |
| 1777876622 | 10° C | 66% | 1009 hPa | - | 3.13 m/s, 240° | - | - |
| 1777873034 | 10° C | 66% | 1010 hPa | - | 4.92 m/s, 160° | - | - |
| 1777869421 | 10° C | 66% | 1010 hPa | - | 4.92 m/s, 130° | - | - |
| 1777865822 | 10° C | 66% | 1011 hPa | - | 4.92 m/s, 140° | - | - |
| 1777862222 | 10° C | 66% | 1011 hPa | - | 4.92 m/s, 130° | - | - |
| 1777858622 | 10° C | 66% | 1012 hPa | - | 3.13 m/s, 130° | - | - |
| 1777855022 | 10° C | 66% | 1013 hPa | - | 4.02 m/s, 140° | - | - |
| 1777851422 | 10° C | 66% | 1014 hPa | - | 3.13 m/s, 80° | - | - |
| 1777847821 | 10° C | 66% | 1015 hPa | - | 3.13 m/s, 100° | - | - |
| 1777844222 | 10° C | 66% | 1016 hPa | - | 3.13 m/s, 130° | - | - |
| 1777840621 | 10° C | 66% | 1017 hPa | - | 3.13 m/s, 170° | - | - |
| 1777837025 | 10° C | 66% | 1018 hPa | - | 1.79 m/s, 180° | - | - |
* Rain since midnight (hover to see other rain measurements)
** Current wind speed in m/s (hover to see current wind gust speed)